STARLINK-31745, 60329

Orbit data source: Space-Track

STARLINK-31745, 60329 is a payload satellite owned by SpaceX/Seattle (US) in LEO that was launched on Fri, 02 Aug 2024 UTC via an FALCON 9 launch vehicle from the Air Force Eastern Test Range (AFETR). Payload-class satellites include a variety of spacecraft equipped with specific instruments for various scientific and technological missions. These include communications satellites like Starlink; space stations such as the ISS; scientific satellites like the Hubble; Earth observation satellites from companies like Planet Labs, Umbra, and HawkEye 360; GPS; miniature CubeSats for education and research; and military/defense satellites.

Loading next visibility...
Identifier
60329, 2024-136A
Orbit
LEO
Country
Flag of USUS
Related business
Manufacturer
SpaceX/Seattle
Mission
Operational Commercial Communications
Bus & Motor
STARLINK V2M, Unknown motor
Mass
730 kg wet, ~700 kg dry
Launch date (UTC)
2024-08-02 (2 years ago)
Launch vehicle
FALCON 9
Launch site
Air Force Eastern Test Range (AFETR)
Object type
Payload
Rocket body
Debris
Shape & HBR
Box + 2 Pan, 17.7 m
Radar Cross Section
33.884 m², Large (>1 m²)

Expand to show TLE details & history
Last TLE update: 18 hours ago

TLE from 18 hours ago
0 STARLINK-31745
1 60329U 24136A   26124.61288816 -.00000559  00000-0 -62592-5 0  9991
2 60329  53.1591 176.1228 0001266  92.0972 268.0175 15.31701818 99436
Epoch: 2026-05-04T14:42Z
TLE epoch observation values (Epoch: 2026-05-04T14:42:33.537Z)
Latitude
0.00005°
Longitude
92.98352°
Altitude
471.665 km
Speed
7.631 km/s
True Right ascension
11h 44m 29s
True Declination
0° 00' 00"
Sunlit
Object was in full shadow at epoch
Visualization orbit readout
Latitude
Unknown
Longitude
Unknown
Altitude
Unknown
Speed
Unknown
Apparent Right ascension
Unknown
Apparent Declination
Unknown
Sunlit
N/A
Visualization observer readout
Local Sidereal Time
17:00:48
Azimuth
Unknown
Elevation
Unknown
Doppler factor
Unknown
Orbital elements
Apogee altitude
471.858 km
Perigee altitude
470.124 km
Semi-major axis
6,849.128 km
Eccentricity
0.00013
Inclination
53.1591°
RAAN
176.1228°
Arg. of periapsis
92.0972°
True anomaly
268.003°
Mean anomaly
268.0175°
Eccentric anomaly
268.01025°
Mean motion
3.82904 °/min
Orbital period
94.02 mins
BSTAR
-0.0000062592
Loading maneuver chart data...
Computing Atmospheric mass density...
Loading historical data...
Loading historical data...
Loading historical data...
Loading historical data...
Loading historical data...
Loading historical data...
Loading historical data...

Documentation

Showing up to 5 results
|